DateTimeUTC,F1_A11,F1_S11,BsB_S11,BsG_S11,BsR_S11,BbsB_S11,BbsG_S11,BbsR_S11,BaB_A11,BaG_A11,BaR_A11,T_S11,U_S11,P_S11,T1_A11
2020-06-20T00:00:00Z,00000380,20000600,,,,,,,,,,26.1,03.7,0676.1,31.1
2020-06-20T00:01:00Z,00000380,20000600,,,,,,,,,,26.1,03.7,0676.1,31.1
2020-06-20T00:02:00Z,00000380,20000600,,,,,,,,,,26.1,03.7,0676.1,31.1
2020-06-20T00:03:00Z,00000380,60000600,,,,,,,,,,26.1,03.5,0676.1,31.1
2020-06-20T00:04:00Z,00000380,40000600,0000.19,0001.40,0000.73,0000.98,0000.02,0000.30,0000.17,0000.27,0000.03,26.0,03.4,0677.0,31.1
2020-06-20T00:05:00Z,00000380,00000600,0000.80,-000.11,0000.57,0000.99,-000.07,0000.31,-000.22,-000.37,-000.07,25.9,03.4,0677.0,31.1
2020-06-20T00:06:00Z,00000380,00000600,0000.93,0001.03,-000.07,0000.37,-000.22,0000.12,-000.52,-000.37,-000.29,25.9,03.3,0677.0,31.1
2020-06-20T00:07:00Z,00000380,00000600,0001.74,0000.38,0000.41,0000.09,-000.04,0000.18,-000.02,-000.11,-000.01,25.9,03.1,0677.0,31.1
2020-06-20T00:08:00Z,00000380,00000600,0001.42,0000.32,-000.01,0001.30,-000.08,0000.20,0000.03,0000.11,-000.06,25.9,03.2,0677.0,31.1
2020-06-20T00:09:00Z,00000380,00000600,0000.38,0000.39,0000.34,0000.56,-000.43,0000.21,-000.06,-000.05,-000.03,25.9,03.1,0677.0,31.1
2020-06-20T00:10:00Z,00000380,00000600,0001.35,0000.39,0000.36,0000.34,0000.05,0000.53,0000.13,0000.16,0000.05,25.9,03.1,0677.0,31.1
2020-06-20T00:11:00Z,00000380,00000600,0000.57,0000.33,0000.09,-000.07,0000.14,-000.35,0000.11,-000.22,0000.01,25.9,03.2,0677.0,31.2
2020-06-20T00:12:00Z,00000380,00000600,0000.83,-000.01,0000.32,0000.36,-000.01,-000.12,-000.16,0000.09,0000.02,25.9,03.2,0677.0,31.1
2020-06-20T00:13:00Z,00000380,00000600,0000.70,0000.82,0000.65,0000.49,0000.02,0000.25,-000.10,0000.02,-000.16,25.9,03.1,0677.0,31.1
2020-06-20T00:14:00Z,00000380,00000600,0000.14,0000.23,0000.45,0000.30,-000.01,0000.23,0000.29,0000.01,0000.12,25.9,03.1,0677.0,31.1
2020-06-20T00:15:00Z,00000380,00000600,0000.33,0000.28,0001.14,-000.26,-000.15,0000.54,-000.13,0000.07,0000.09,25.9,03.1,0677.0,31.2
2020-06-20T00:16:00Z,00000380,00000600,0000.52,0000.41,0000.63,0000.23,-000.32,-000.16,-000.09,-000.06,0000.06,25.9,03.2,0677.0,31.1
2020-06-20T00:17:00Z,00000380,00000600,0000.85,0000.91,-000.02,-000.05,0000.04,0000.17,-000.03,0000.07,-000.11,25.9,03.1,0677.0,31.1
2020-06-20T00:18:00Z,00000380,00000600,0000.52,0000.50,0000.67,0000.67,0000.10,-000.17,-000.02,-000.13,-000.10,25.9,03.1,0677.0,31.1
2020-06-20T00:19:00Z,00000380,00000600,0000.02,0000.43,0000.41,0000.60,0000.02,-000.02,-000.05,0000.01,-000.16,25.9,03.0,0677.0,31.1
2020-06-20T00:20:00Z,00000380,00000600,0000.55,0001.03,0000.18,0000.02,-000.47,0000.46,-000.23,-000.27,-000.00,25.9,02.9,0677.0,31.1
2020-06-20T00:21:00Z,00000380,00000600,0000.61,0000.56,0000.26,-000.01,0000.14,0000.16,0000.06,-000.06,-000.13,25.9,03.0,0677.0,31.1
2020-06-20T00:22:00Z,00000380,00000600,0000.13,0000.61,0000.16,0000.33,-000.05,-000.18,-000.01,0000.08,0000.15,25.9,02.9,0677.0,31.1
2020-06-20T00:23:00Z,00000380,00000600,0000.55,0000.17,0000.19,0000.80,-000.01,0000.08,0000.09,0000.04,-000.14,25.8,02.9,0677.0,31.1
2020-06-20T00:24:00Z,00000380,00000600,-000.10,0000.53,-000.01,0001.02,-000.01,0000.26,0000.36,0000.35,0000.27,25.8,03.0,0677.0,31.1
2020-06-20T00:25:00Z,00000380,00000600,0000.15,0000.30,-000.10,0000.32,-000.28,0000.23,0000.34,0000.34,0000.36,25.9,03.2,0676.9,31.1
2020-06-20T00:26:00Z,00000380,00000600,-000.68,0001.33,0000.24,0001.38,0000.01,0000.09,0000.07,0000.00,0000.13,25.9,03.3,0676.9,31.1
2020-06-20T00:27:00Z,00000380,00000600,-000.24,0000.02,0000.54,0000.43,-000.29,0000.31,0000.77,0000.62,0000.41,25.9,03.4,0676.9,31.1
2020-06-20T00:28:00Z,00000380,00000600,0000.89,0000.46,0000.04,-000.26,-000.15,0000.09,-000.75,-000.58,-000.46,25.9,03.4,0676.9,31.1
2020-06-20T00:29:00Z,00000380,00000600,0000.15,0000.25,-000.03,0000.08,-000.21,-000.10,-000.07,-000.15,-000.09,25.9,03.2,0676.9,31.1
2020-06-20T00:30:00Z,00000380,00000600,0001.84,0000.78,0000.20,0001.06,-000.38,0000.28,-000.04,0000.15,-000.12,25.9,03.2,0676.9,31.1
2020-06-20T00:31:00Z,00000380,00000600,0001.27,0000.65,0000.33,0000.48,0000.13,0000.28,-000.08,-000.22,-000.06,25.8,03.1,0676.9,31.1
2020-06-20T00:32:00Z,00000380,00000600,-000.22,0000.48,-000.09,0000.58,0000.07,0000.11,-000.39,-000.29,-000.28,25.8,03.0,0676.9,31.1
2020-06-20T00:33:00Z,00000380,00000600,0000.87,0000.76,0000.07,-000.50,-000.33,0000.13,-000.35,-000.39,-000.08,25.8,02.9,0676.9,31.1
2020-06-20T00:34:00Z,00000380,00000600,0001.55,0000.56,0000.78,-000.77,0000.09,-000.31,0000.65,0000.70,0000.30,25.8,02.9,0676.8,31.1
2020-06-20T00:35:00Z,00000380,00000600,0001.08,0001.57,0000.91,0000.01,0000.08,0000.35,-000.18,-000.11,-000.06,25.8,03.1,0676.8,31.2
2020-06-20T00:36:00Z,00000380,00000600,0000.98,0000.92,0000.25,0000.37,0000.04,0000.12,0000.36,0000.34,0000.27,25.8,03.2,0676.8,31.1
2020-06-20T00:37:00Z,00000380,00000600,-000.09,-000.00,0000.49,-000.21,-000.11,0000.21,-000.10,-000.20,-000.06,25.8,03.2,0676.8,31.1
2020-06-20T00:38:00Z,00000380,00000600,0002.17,0001.42,0000.84,0000.97,0000.12,0000.08,0000.15,0000.25,0000.22,25.8,03.1,0676.8,31.1
2020-06-20T00:39:00Z,00000380,00000600,0001.50,0001.41,0000.40,0000.52,-000.07,0000.02,0000.22,0000.08,0000.01,25.8,03.3,0676.8,31.1
2020-06-20T00:40:00Z,00000380,00000600,0002.01,0001.63,0000.84,0000.30,-000.12,-000.27,0000.46,0000.66,0000.48,25.8,03.3,0676.8,31.1
2020-06-20T00:41:00Z,00000380,00000600,0001.15,0000.93,0000.18,0000.17,0000.15,0000.29,-000.01,-000.21,-000.15,25.8,03.4,0676.8,31.1
2020-06-20T00:42:00Z,00000380,00000600,-000.15,0000.73,0000.21,0000.04,-000.27,-000.23,-000.29,-000.42,-000.18,25.8,03.3,0676.8,31.1
2020-06-20T00:43:00Z,00000380,00000600,0001.26,0000.21,0000.91,0000.18,0000.30,0000.33,-000.04,0000.18,-000.06,25.8,03.3,0676.7,31.1
2020-06-20T00:44:00Z,00000380,00000600,0001.81,0001.40,0001.07,0000.94,-000.16,0000.16,0000.25,0000.04,0000.12,25.8,03.3,0676.7,31.1
2020-06-20T00:45:00Z,00000380,00000600,0002.54,0001.60,0000.66,0000.55,0000.07,-000.36,0000.20,0000.03,0000.10,25.8,03.3,0676.7,31.1
2020-06-20T00:46:00Z,00000380,00000600,0000.73,0000.78,0000.68,0000.06,0000.21,0000.34,0000.09,0000.45,0000.25,25.8,03.4,0676.7,31.1
2020-06-20T00:47:00Z,00000380,00000600,0001.80,0001.66,0001.42,0000.86,0000.19,0000.54,0000.17,0000.17,-000.05,25.8,03.4,0676.7,31.1
2020-06-20T00:48:00Z,00000380,00000600,0002.09,0001.51,0000.60,0000.75,0000.43,0000.16,0000.70,0000.59,0000.50,25.8,03.6,0676.7,31.1
2020-06-20T00:49:00Z,00000380,00000600,0001.14,0001.61,0000.84,0000.39,0000.17,0000.09,-000.29,-000.26,-000.08,25.8,03.6,0676.8,31.1
2020-06-20T00:50:00Z,00000380,00000600,0001.85,0001.64,0001.46,0000.54,0000.48,0000.38,0000.36,0000.20,0000.14,25.8,03.6,0676.8,31.1
2020-06-20T00:51:00Z,00000380,00000600,0003.23,0001.00,0000.79,0000.25,0000.05,0000.02,-000.11,-000.04,0000.00,25.8,03.6,0676.8,31.1
2020-06-20T00:52:00Z,00000380,00000600,0002.39,0001.75,0000.67,0000.93,0000.08,0000.01,-000.20,-000.29,-000.22,25.8,03.5,0676.8,31.1
2020-06-20T00:53:00Z,00000380,00000600,0001.54,0001.62,0000.79,0001.11,0000.13,0000.17,-000.05,0000.05,0000.10,25.8,03.4,0676.8,31.1
2020-06-20T00:54:00Z,00000380,00000600,0000.93,0000.90,0000.32,0000.19,0000.02,0000.08,-000.64,-000.50,-000.34,25.8,03.3,0676.8,31.1
2020-06-20T00:55:00Z,00000380,00000600,0000.59,0000.60,0000.68,0001.00,-000.02,0000.04,-000.34,-000.65,-000.30,25.8,03.0,0676.8,31.1
2020-06-20T00:56:00Z,00000380,00000600,0002.05,0000.88,0000.62,-000.01,0000.37,0000.35,-000.25,0000.09,-000.23,25.8,02.9,0676.8,31.1
2020-06-20T00:57:00Z,00000380,40000600,,,,,,,,,,25.8,03.2,0676.8,31.1
2020-06-20T00:58:00Z,00000380,60000600,,,,,,,,,,25.9,02.8,0675.7,31.1
2020-06-20T00:59:00Z,00000380,20000600,,,,,,,,,,26.1,02.6,0675.7,31.1
2020-06-20T01:00:00Z,00000380,20000600,,,,,,,,,,26.1,02.6,0675.7,31.1
2020-06-20T01:01:00Z,00000380,20000600,,,,,,,,,,26.1,02.4,0675.7,31.1
2020-06-20T01:02:00Z,00000380,20000600,,,,,,,,,,26.1,02.4,0675.7,31.1
2020-06-20T01:03:00Z,00000380,60000600,,,,,,,,,,26.1,02.4,0675.7,31.1
2020-06-20T01:04:00Z,00000380,40000600,0002.27,0001.51,0001.17,-000.83,0000.62,-000.04,0000.39,0000.47,0000.31,25.9,02.4,0676.5,31.1
2020-06-20T01:05:00Z,00000380,00000600,0003.24,0001.48,0000.93,0000.50,0000.55,0000.35,0000.48,0000.42,0000.34,25.9,02.6,0676.6,31.1
2020-06-20T01:06:00Z,00000380,00000600,0001.16,0000.52,0000.11,-000.04,0000.08,0000.11,0000.09,0000.02,0000.07,25.9,02.8,0676.5,31.1
2020-06-20T01:07:00Z,00000380,00000600,0000.94,0000.75,0000.51,0000.15,-000.15,0000.19,-000.28,-000.19,-000.15,25.9,02.8,0676.5,31.1
2020-06-20T01:08:00Z,00000380,00000600,0002.86,0001.09,0000.49,0000.79,0000.28,0000.26,0000.09,0000.01,0000.00,25.9,02.6,0676.5,31.2
2020-06-20T01:09:00Z,00000380,00000600,0000.58,0000.80,0000.82,0000.07,0000.23,0000.44,0000.98,0000.91,0000.66,25.9,02.9,0676.5,31.1
2020-06-20T01:10:00Z,00000380,00000600,0001.36,0000.07,0000.42,-000.84,0000.21,0000.25,-000.55,-000.48,-000.23,25.9,03.0,0676.5,31.1
2020-06-20T01:11:00Z,00000380,00000600,0001.10,-000.01,0000.39,-000.35,0000.17,-000.20,0000.18,0000.18,0000.07,25.9,02.9,0676.5,31.1
2020-06-20T01:12:00Z,00000380,00000600,0000.12,0000.39,0000.26,-000.22,0000.12,0000.00,-000.34,-000.28,-000.20,25.8,03.0,0676.5,31.1
2020-06-20T01:13:00Z,00000380,00000600,0001.60,0000.61,-000.04,0000.61,0000.22,-000.01,-000.19,-000.17,-000.21,25.8,02.7,0676.5,31.1
2020-06-20T01:14:00Z,00000380,00000600,0001.95,0001.02,0000.46,0000.52,-000.17,0000.11,0000.46,0000.37,0000.31,25.8,02.7,0676.5,31.1
2020-06-20T01:15:00Z,00000380,00000600,0003.03,0001.29,0001.12,0000.15,0000.05,0000.23,-000.14,-000.14,-000.02,25.8,03.3,0676.5,31.1
2020-06-20T01:16:00Z,00000380,00000600,0002.81,0001.02,0000.67,-000.75,0000.35,0000.65,-000.60,-000.61,-000.47,25.8,02.7,0676.5,31.1
2020-06-20T01:17:00Z,00000380,00000600,0002.05,0000.82,0000.73,0000.10,0000.51,0000.07,-000.07,0000.07,-000.03,25.8,02.5,0676.5,31.1
2020-06-20T01:18:00Z,00000380,00000600,0002.02,0001.30,0000.25,-000.37,0000.22,0000.27,-000.23,-000.10,-000.03,25.8,02.4,0676.5,31.1
2020-06-20T01:19:00Z,00000380,00000600,0002.68,0001.70,0000.56,0000.13,0000.16,0000.29,0000.35,0000.39,-000.01,25.8,02.4,0676.4,31.2
2020-06-20T01:20:00Z,00000380,00000600,0001.46,0000.41,0000.27,0000.30,0000.14,-000.11,0000.29,0000.00,0000.28,25.8,02.5,0676.4,31.1
2020-06-20T01:21:00Z,00000380,00000600,0000.58,0000.58,0000.08,0000.11,0000.41,0000.14,-000.33,-000.16,-000.14,25.8,02.6,0676.4,31.1
2020-06-20T01:22:00Z,00000380,00000600,0001.76,0001.02,0000.41,0000.03,0000.35,-000.07,0000.29,0000.29,0000.31,25.8,02.6,0676.4,31.1
2020-06-20T01:23:00Z,00000380,00000600,0004.07,0002.37,0001.34,0001.09,0000.78,0000.42,0002.83,0002.68,0001.91,25.8,03.8,0676.5,31.1
2020-06-20T01:24:00Z,00000380,00000600,0002.02,0001.60,0000.65,0001.10,0000.47,0000.13,-001.64,-001.62,-001.16,25.8,03.5,0676.5,31.1
2020-06-20T01:25:00Z,00000380,00000600,0001.75,0001.28,0000.63,0000.66,0000.16,0000.28,-000.49,-000.37,-000.35,25.8,02.9,0676.5,31.1
2020-06-20T01:26:00Z,00000380,00000600,0001.09,0001.21,0000.10,0000.21,0000.44,0000.24,-000.30,-000.19,-000.07,25.8,02.6,0676.4,31.1
2020-06-20T01:27:00Z,00000380,00000600,0000.93,0000.80,0000.69,0000.38,0000.37,0000.16,-000.04,-000.03,-000.07,25.8,02.6,0676.4,31.1
2020-06-20T01:28:00Z,00000380,00000600,0002.60,0001.03,0000.81,0000.65,0000.20,0000.29,-000.08,-000.22,-000.05,25.8,02.6,0676.4,31.1
2020-06-20T01:29:00Z,00000380,00000600,-000.08,-000.03,-000.19,-000.34,0000.45,-000.31,-000.43,-000.32,-000.35,25.8,02.5,0676.4,31.1
2020-06-20T01:30:00Z,00000380,00000600,0000.66,0000.04,-000.35,-000.31,0000.20,-000.37,-000.32,-000.20,-000.06,25.8,02.3,0676.4,31.1
2020-06-20T01:31:00Z,00000380,00000600,0000.28,-000.09,0000.13,-000.14,-000.05,-000.11,0000.22,0000.01,0000.01,25.8,02.3,0676.4,31.1
2020-06-20T01:32:00Z,00000380,00000600,0000.29,-000.11,-000.40,-000.14,-000.11,0000.58,-000.59,-000.32,-000.29,25.8,02.2,0676.4,31.1
2020-06-20T01:33:00Z,00000380,00000600,0000.56,-000.02,0000.14,0000.69,0000.50,0000.12,-000.51,-000.49,-000.34,25.8,02.0,0676.4,31.1
2020-06-20T01:34:00Z,00000380,00000600,0000.12,0000.40,0000.21,-000.22,0000.38,0000.65,-000.03,-000.21,-000.01,25.8,01.9,0676.4,31.1
2020-06-20T01:35:00Z,00000380,00000600,0001.20,0000.02,0000.38,0000.27,-000.06,-000.20,-000.15,-000.09,-000.29,25.8,01.9,0676.4,31.1
2020-06-20T01:36:00Z,00000380,00000600,0000.63,0000.39,0000.26,0000.30,0000.19,0000.30,0000.41,0000.54,0000.41,25.8,01.9,0676.4,31.1
2020-06-20T01:37:00Z,00000380,00000600,0001.74,0000.86,0000.05,0000.50,0000.14,0000.25,0000.07,-000.05,-000.02,25.8,02.0,0676.3,31.1
2020-06-20T01:38:00Z,00000380,00000600,0002.25,0001.16,0000.16,0000.44,0000.24,0000.21,0000.35,0000.34,0000.39,25.8,02.1,0676.3,31.1
2020-06-20T01:39:00Z,00000380,00000600,0002.35,0000.76,0000.49,0000.38,0000.66,0000.28,0000.17,0000.06,0000.02,25.8,02.2,0676.3,31.1
2020-06-20T01:40:00Z,00000380,00000600,0002.89,0001.06,0001.24,0000.36,0000.26,0000.57,0000.77,0000.75,0000.56,25.8,02.4,0676.2,31.1
2020-06-20T01:41:00Z,00000380,00000600,0003.01,0001.00,0001.00,0000.12,0000.71,0000.37,-000.04,-000.14,-000.05,25.8,02.4,0676.2,31.1
2020-06-20T01:42:00Z,00000380,00000600,0002.39,0001.45,0001.02,0000.70,0000.42,0000.16,0000.74,0000.81,0000.51,25.8,02.5,0676.2,31.1
2020-06-20T01:43:00Z,00000380,00000600,0002.46,0001.20,0000.87,-000.20,0000.32,0000.25,0000.05,0000.12,0000.04,25.8,02.7,0676.2,31.1
2020-06-20T01:44:00Z,00000380,00000600,0001.90,0000.80,0001.10,0000.23,0000.47,0000.34,0000.35,0000.41,0000.40,25.7,02.8,0676.2,31.1
2020-06-20T01:45:00Z,00000380,00000600,0002.48,0001.20,0000.96,-000.47,0000.22,0000.55,0000.63,0000.41,0000.02,25.8,03.0,0676.2,31.1
2020-06-20T01:46:00Z,00000380,00000600,0002.53,0001.13,0000.70,0000.01,0000.22,0000.24,0000.08,0000.25,0000.34,25.8,03.2,0676.2,31.1
2020-06-20T01:47:00Z,00000380,00000600,0001.81,0000.82,0000.58,-000.21,-000.04,0000.17,0000.20,-000.13,0000.18,25.8,03.2,0676.2,31.2
2020-06-20T01:48:00Z,00000380,00000600,0002.29,0001.54,0000.20,0000.11,0000.53,0000.24,0000.08,0000.18,0000.11,25.8,03.2,0676.2,31.1
2020-06-20T01:49:00Z,00000380,00000600,0002.58,0001.16,0000.44,0001.13,-000.07,0000.10,0000.77,0000.69,0000.33,25.8,03.4,0676.2,31.1
2020-06-20T01:50:00Z,00000380,00000600,0001.89,0000.75,0000.45,0000.42,0000.34,0000.45,-000.76,-000.67,-000.32,25.7,03.3,0676.2,31.1
2020-06-20T01:51:00Z,00000380,00000600,0001.14,0000.46,0000.42,0000.79,0000.49,0000.10,-000.56,-000.57,-000.50,25.7,03.0,0676.3,31.1
2020-06-20T01:52:00Z,00000380,00000600,0001.61,0000.40,-000.08,-000.36,0000.19,-000.07,-000.56,-000.08,-000.35,25.7,02.7,0676.2,31.1
2020-06-20T01:53:00Z,00000380,00000600,0002.59,0001.39,0000.99,-000.19,0000.42,0000.15,0000.87,0000.42,0000.53,25.7,02.6,0676.2,31.1
2020-06-20T01:54:00Z,00000380,00000600,0002.78,0001.65,0000.96,-000.31,-000.03,0000.16,-000.49,-000.39,-000.38,25.7,02.9,0676.2,31.1
2020-06-20T01:55:00Z,00000380,00000600,0002.46,0001.40,0001.06,0000.07,0000.29,0000.28,-000.26,-000.08,0000.00,25.7,02.6,0676.2,31.1
2020-06-20T01:56:00Z,00000380,00000600,0002.87,0001.26,0000.54,-000.04,0000.78,0000.39,-000.06,-000.08,0000.08,25.7,02.5,0676.2,31.1
2020-06-20T01:57:00Z,00000380,40000600,,,,,,,,,,25.8,02.2,0676.2,31.1
2020-06-20T01:58:00Z,00000380,60000600,,,,,,,,,,25.8,02.3,0675.2,31.1
2020-06-20T01:59:00Z,00000380,20000600,,,,,,,,,,25.9,02.2,0675.2,31.1
2020-06-20T02:00:00Z,00000380,20000600,,,,,,,,,,25.9,02.2,0675.2,31.1
2020-06-20T02:01:00Z,00000380,20000600,,,,,,,,,,26.0,02.1,0675.2,31.1
2020-06-20T02:02:00Z,00000380,20000600,,,,,,,,,,26.0,02.1,0675.2,31.1
2020-06-20T02:03:00Z,00000380,60000600,,,,,,,,,,26.0,02.1,0675.2,31.1
2020-06-20T02:04:00Z,00000380,40000600,0000.19,0001.33,0000.99,-000.24,0000.35,0000.17,-002.77,-002.68,-001.97,25.8,03.0,0676.2,31.1
2020-06-20T02:05:00Z,00000380,00000600,0002.38,0001.09,0000.80,0000.74,0000.13,0000.24,-000.09,0000.07,-000.06,25.8,02.1,0676.3,31.1
2020-06-20T02:06:00Z,00000380,00000600,0001.91,0000.83,0000.73,0000.44,-000.06,0000.20,-001.22,-001.06,-000.74,25.8,02.1,0676.3,31.1
2020-06-20T02:07:00Z,00000380,00000600,-000.12,0000.65,0000.44,0000.59,0000.16,0000.15,-000.60,-000.58,-000.44,25.7,01.7,0676.3,31.1
2020-06-20T02:08:00Z,00000380,00000600,0001.10,0001.13,0000.85,0000.07,0000.11,0000.58,0002.35,0002.22,0001.77,25.7,02.7,0676.3,31.1
2020-06-20T02:09:00Z,00000380,00000600,0001.49,0001.32,0001.70,0000.05,0000.14,0000.30,-000.21,-000.48,-000.24,25.7,02.7,0676.4,31.1
2020-06-20T02:10:00Z,00000380,00000600,0003.40,0001.08,0000.65,0000.78,0000.50,-000.00,-001.12,-000.88,-000.84,25.7,02.1,0676.3,31.1
2020-06-20T02:11:00Z,00000380,00000600,0001.03,0001.30,0000.89,0000.65,0000.53,0000.49,0000.31,0000.30,0000.40,25.7,02.2,0676.3,31.1
2020-06-20T02:12:00Z,00000380,00000600,-000.00,0000.04,0000.30,0000.56,-000.09,0000.27,-000.36,-000.13,-000.30,25.7,02.0,0676.3,31.1
2020-06-20T02:13:00Z,00000380,00000600,0000.83,0000.20,0000.48,0000.61,0000.03,-000.06,0001.73,0001.30,0000.99,25.7,02.2,0676.3,31.1
2020-06-20T02:14:00Z,00000380,00000600,0000.23,-000.07,0000.62,0000.57,0000.32,-000.16,-002.17,-001.77,-001.29,25.7,02.2,0676.3,31.1
2020-06-20T02:15:00Z,00000380,00000600,0000.19,0001.03,0000.42,0001.19,0000.12,-000.36,-000.39,-000.49,-000.36,25.7,01.6,0676.3,31.1
2020-06-20T02:16:00Z,00000380,00000600,0001.65,0001.21,0000.96,0000.99,0000.27,0000.10,0000.18,0000.31,0000.17,25.7,01.5,0676.3,31.1
2020-06-20T02:17:00Z,00000380,00000600,0001.49,0001.03,0000.38,0000.40,-000.04,0000.02,0000.16,-000.08,0000.08,25.7,01.6,0676.3,31.1
2020-06-20T02:18:00Z,00000380,00000600,0001.18,0001.40,0001.09,0000.87,0000.07,0000.30,0000.11,0000.23,0000.05,25.7,01.7,0676.2,31.1
2020-06-20T02:19:00Z,00000380,00000600,0002.64,0001.09,0001.38,-000.01,0000.22,0000.04,0000.53,0000.40,0000.46,25.7,01.8,0676.2,31.1
2020-06-20T02:20:00Z,00000380,00000600,0003.34,0001.19,0001.05,0000.88,0000.38,0000.11,-000.07,0000.04,-000.05,25.7,01.8,0676.2,31.1
2020-06-20T02:21:00Z,00000380,00000600,0001.76,0001.91,0000.82,0001.32,0000.42,0000.03,0000.91,0000.87,0000.60,25.7,02.2,0676.2,31.1
2020-06-20T02:22:00Z,00000380,00000600,0000.95,0001.06,0000.94,-000.04,0000.02,0000.37,-000.28,-000.51,-000.38,25.7,02.1,0676.2,31.1
2020-06-20T02:23:00Z,00000380,00000600,0001.58,0000.92,0000.62,0000.48,0000.13,0000.08,0000.05,0000.30,0000.18,25.7,02.1,0676.2,31.1
2020-06-20T02:24:00Z,00000380,00000600,0002.23,0000.44,0001.30,0000.06,0000.28,0000.35,0004.44,0004.09,0002.98,25.7,02.2,0676.2,31.1
2020-06-20T02:25:00Z,00000380,00000600,0002.39,0000.93,0000.42,-000.21,0000.09,-000.11,-003.48,-003.25,-002.22,25.7,03.2,0676.2,31.1
2020-06-20T02:26:00Z,00000380,00000600,0001.23,0000.76,0000.77,0000.05,0000.21,-000.17,-000.32,-000.26,-000.20,25.6,02.2,0676.3,31.1
2020-06-20T02:27:00Z,00000380,00000600,0000.44,0001.45,0000.77,0000.39,0000.44,-000.24,0000.15,0000.14,-000.03,25.6,02.2,0676.3,31.1
2020-06-20T02:28:00Z,00000380,00000600,0001.13,0001.32,0001.08,0000.86,0000.68,0000.22,0000.25,0000.10,0000.25,25.6,02.2,0676.2,31.1
2020-06-20T02:29:00Z,00000380,00000600,0000.74,0001.13,0000.54,0000.18,0000.46,-000.11,0000.18,0000.18,-000.02,25.6,02.2,0676.2,31.1
2020-06-20T02:30:00Z,00000380,00000600,0002.21,0000.52,0001.29,0000.78,0000.62,0000.09,-000.03,0000.02,0000.07,25.6,02.3,0676.2,31.1
2020-06-20T02:31:00Z,00000380,00000600,0002.11,0001.16,0001.07,0000.31,0000.31,0000.37,0000.15,0000.18,0000.03,25.6,02.3,0676.2,31.1
2020-06-20T02:32:00Z,00000380,00000600,0002.68,0001.16,0001.28,0000.55,0000.16,-000.27,-000.06,-000.07,0000.20,25.6,02.4,0676.2,31.1
2020-06-20T02:33:00Z,00000380,00000600,0000.18,0001.89,0001.19,0000.37,0000.44,-000.19,-000.03,-000.06,-000.20,25.6,02.3,0676.2,31.1
2020-06-20T02:34:00Z,00000380,00000600,0001.91,0001.25,0001.12,0000.45,0000.85,-000.29,0000.04,0000.04,0000.06,25.6,02.2,0676.2,31.1
2020-06-20T02:35:00Z,00000380,00000600,0000.65,0000.53,0000.57,0000.60,0000.40,0000.17,-000.38,-000.24,-000.08,25.6,02.2,0676.2,31.1
2020-06-20T02:36:00Z,00000380,00000600,0002.85,0000.89,0000.30,0000.41,0000.17,0000.31,0000.06,-000.12,-000.27,25.6,02.0,0676.2,31.1
2020-06-20T02:37:00Z,00000380,00000600,0001.61,0000.61,0000.85,0000.55,-000.03,0000.06,0000.17,0000.18,0000.26,25.6,02.1,0676.2,31.1
2020-06-20T02:38:00Z,00000380,00000600,0001.80,0000.68,0000.26,0000.12,0000.39,0000.05,0000.13,0000.23,0000.03,25.6,02.2,0676.2,31.1
2020-06-20T02:39:00Z,00000380,00000600,0001.96,0001.18,0001.59,0001.21,0000.52,0000.25,0003.17,0002.99,0002.25,25.6,03.1,0676.2,31.1
2020-06-20T02:40:00Z,00000380,00000600,0000.71,0001.31,0001.07,0000.37,0000.25,0000.15,-002.07,-001.91,-001.54,25.6,03.1,0676.2,31.1
2020-06-20T02:41:00Z,00000380,00000600,0001.89,0001.25,0000.73,0001.58,0000.29,0000.12,-000.00,-000.09,0000.12,25.6,02.5,0676.2,31.1
2020-06-20T02:42:00Z,00000380,00000600,0001.39,0001.25,0001.11,0000.25,-000.11,0000.52,0000.06,0000.16,-000.03,25.6,02.5,0676.2,31.1
2020-06-20T02:43:00Z,00000380,00000600,-000.11,0000.34,0001.01,0000.17,-000.09,0000.29,-000.12,-000.23,-000.10,25.6,02.5,0676.2,31.1
2020-06-20T02:44:00Z,00000380,00000600,-000.43,0000.98,0000.78,0001.41,0000.38,-000.27,-000.14,-000.06,-000.02,25.6,02.4,0676.2,31.1
2020-06-20T02:45:00Z,00000380,00000600,0001.66,0000.55,0000.57,0000.20,0000.25,0000.34,0000.03,-000.13,0000.00,25.6,02.5,0676.2,31.1
2020-06-20T02:46:00Z,00000380,00000600,0001.88,0001.55,0001.23,0001.21,0000.11,-000.01,0000.05,0000.31,-000.05,25.6,02.3,0676.1,31.1
2020-06-20T02:47:00Z,00000380,00000600,0000.39,0001.47,0001.04,0000.32,0000.11,0000.20,0000.12,0000.21,0000.20,25.6,02.5,0676.1,31.1
2020-06-20T02:48:00Z,00000380,00000600,0000.96,0001.13,0000.45,0000.67,0000.20,0000.22,0000.15,-000.36,0000.02,25.6,02.4,0676.1,31.1
2020-06-20T02:49:00Z,00000380,00000600,0001.47,0001.07,0000.62,0000.78,0000.56,0000.13,0000.09,0000.34,0000.19,25.6,02.4,0676.1,31.1
2020-06-20T02:50:00Z,00000380,00000600,0002.10,0001.21,0000.80,0001.18,0000.17,-000.16,-000.20,-000.37,-000.33,25.5,02.4,0676.2,31.1
2020-06-20T02:51:00Z,00000380,00000600,0002.40,0001.58,0000.56,0000.59,0000.37,-000.12,0000.08,0000.34,0000.05,25.5,02.4,0676.1,31.1
2020-06-20T02:52:00Z,00000380,00000600,0001.89,0001.10,0000.56,0000.87,0000.70,-000.06,0000.09,-000.03,0000.16,25.5,02.3,0676.1,31.1
2020-06-20T02:53:00Z,00000380,00000600,0001.66,0001.50,0000.91,0000.88,0000.34,0000.03,-000.07,0000.12,0000.14,25.6,02.4,0676.1,31.1
2020-06-20T02:54:00Z,00000380,00000600,0001.17,0001.08,0000.76,0000.68,0000.51,0000.55,0000.18,0000.06,-000.04,25.5,02.3,0676.1,31.1
2020-06-20T02:55:00Z,00000380,00000600,0002.59,0001.71,0000.88,0000.84,0000.49,0000.01,0000.10,0000.15,0000.10,25.6,02.4,0676.1,31.1
2020-06-20T02:56:00Z,00000380,00000600,0001.23,0000.87,0000.70,-000.43,0000.10,0000.19,0000.08,0000.14,0000.06,25.6,02.5,0676.1,31.1
2020-06-20T02:57:00Z,00000380,40000600,,,,,,,,,,25.6,02.6,0676.1,31.1
2020-06-20T02:58:00Z,00000380,60000600,,,,,,,,,,25.7,02.4,0675.1,31.1
2020-06-20T02:59:00Z,00000380,20000600,,,,,,,,,,25.8,02.4,0675.1,31.1
2020-06-20T03:00:00Z,00000380,20000600,,,,,,,,,,25.8,02.4,0675.1,31.1
2020-06-20T03:01:00Z,00000380,20000600,,,,,,,,,,25.8,02.4,0675.1,31.1
2020-06-20T03:02:00Z,00000380,20000600,,,,,,,,,,25.8,02.4,0675.1,31.1
2020-06-20T03:03:00Z,00000380,60000600,,,,,,,,,,25.8,02.4,0675.1,31.1
2020-06-20T03:04:00Z,00000380,40000600,0001.25,0001.28,0000.33,0000.46,0000.16,0000.56,-000.29,-000.12,-000.23,25.6,02.2,0676.1,31.1
2020-06-20T03:05:00Z,00000380,00000600,0000.19,0000.44,0000.64,0000.75,0000.12,0000.43,-000.53,-000.46,-000.26,25.6,02.1,0676.2,31.1
2020-06-20T03:06:00Z,00000380,00000600,0001.61,0001.54,0000.76,0000.57,0000.49,0000.18,-000.31,-000.46,-000.38,25.6,01.9,0676.2,31.1
2020-06-20T03:07:00Z,00000380,00000600,-000.31,0000.45,-000.10,-000.30,0000.14,-000.05,0000.34,0000.29,0000.15,25.6,01.8,0676.2,31.1
2020-06-20T03:08:00Z,00000380,00000600,-000.15,-000.00,0000.02,-000.87,0000.22,0000.42,-000.63,-000.38,-000.27,25.6,01.8,0676.2,31.1
2020-06-20T03:09:00Z,00000380,00000600,0000.57,-000.41,0000.28,-000.07,0000.34,0000.23,0000.19,0000.21,0000.11,25.6,01.7,0676.2,31.1
2020-06-20T03:10:00Z,00000380,00000600,0000.45,0000.41,0001.04,0000.59,0000.05,0000.29,-000.13,-000.13,0000.08,25.6,01.8,0676.2,31.1